sat.trackr.live / text

‹ back to catalog

STARLINK-32836

NORAD 62965 · 2025-029T

PAYLOAD ACTIVE UNKNOWN

§ Identity

Operator
Country
US
Launch date
2025-02-11
Launch site
AFWTR
Launch vehicle
Mass (kg)
RCS (m²)

Purposes: comms

External: N2YO · Heavens-Above · Gunter

§ Orbital elements

Epoch: 2026-05-24T17:37:36.479136Z

Period
94.11 min
Inclination
53.1590°
Eccentricity
0.0001108
Mean motion
15.30192592 rev/d
Perigee alt
474.5 km
Apogee alt
476.0 km
Semi-major
6,853.4 km
B*
5.9374e-4
RAAN
236.8737°
Arg perigee
75.6961°
Mean anomaly
284.4163°
Rev number
7,299

§ Raw data

STARLINK-328361 62965U 25029T   26144.73444999  .00017263  00000+0  59374-3 0  99912 62965  53.1590 236.8737 0001108  75.6961 284.4163 15.30192592 72995

JSON: /api/v1/satellites/62965 · /tle

For live sub-satellite position, see the globe view (requires WebGL).

§ Visibility from observer

Set your observer location to see the next 7 days of passes ≥ 10°. The values pass through the URL so the page stays shareable.

No JS? Fill the form by hand. The geolocation button needs JavaScript.